TimeCDT,TemperatureF,Dew PointF,Humidity,Sea Level PressureIn,VisibilityMPH,Wind Direction,Wind SpeedMPH,Gust SpeedMPH,PrecipitationIn,Events,Conditions,WindDirDegrees,DateUTC
12:53 AM,80.1,70.0,71,29.98,10.0,ENE,3.5,-,N/A,,Mostly Cloudy,60,2013-06-15 05:53:00
1:53 AM,78.1,70.0,76,29.97,10.0,ENE,8.1,-,N/A,,Partly Cloudy,60,2013-06-15 06:53:00
2:53 AM,77.0,69.1,76,29.97,10.0,ENE,3.5,-,N/A,,Overcast,70,2013-06-15 07:53:00
3:53 AM,77.0,68.0,74,29.98,10.0,East,6.9,-,N/A,,Overcast,90,2013-06-15 08:53:00
4:53 AM,75.9,68.0,76,29.98,10.0,East,3.5,-,N/A,,Mostly Cloudy,100,2013-06-15 09:53:00
5:53 AM,75.0,66.9,76,29.98,10.0,East,3.5,-,N/A,,Clear,100,2013-06-15 10:53:00
6:53 AM,75.0,66.9,76,29.98,10.0,ENE,5.8,-,N/A,,Clear,70,2013-06-15 11:53:00
7:53 AM,75.9,68.0,76,29.99,10.0,ENE,6.9,-,N/A,,Clear,60,2013-06-15 12:53:00
8:53 AM,79.0,66.9,66,30.00,10.0,Variable,5.8,-,N/A,,Clear,0,2013-06-15 13:53:00
9:53 AM,82.0,68.0,62,30.01,10.0,ENE,4.6,-,N/A,,Clear,70,2013-06-15 14:53:00
10:53 AM,86.0,69.1,57,29.99,10.0,NE,8.1,-,N/A,,Clear,50,2013-06-15 15:53:00
11:53 AM,88.0,69.1,53,30.00,10.0,ESE,6.9,-,N/A,,Clear,110,2013-06-15 16:53:00
12:53 PM,89.1,68.0,50,29.98,10.0,ESE,5.8,-,N/A,,Clear,120,2013-06-15 17:53:00
1:53 PM,90.0,68.0,48,29.96,10.0,Calm,Calm,-,N/A,,Clear,0,2013-06-15 18:53:00
2:53 PM,90.0,68.0,48,29.95,10.0,ESE,8.1,-,N/A,,Clear,120,2013-06-15 19:53:00
3:53 PM,89.1,68.0,50,29.93,10.0,SSW,6.9,-,N/A,,Clear,200,2013-06-15 20:53:00
4:53 PM,88.0,68.0,51,29.93,10.0,South,4.6,-,N/A,,Clear,180,2013-06-15 21:53:00
5:53 PM,88.0,66.9,49,29.92,10.0,Calm,Calm,-,N/A,,Clear,0,2013-06-15 22:53:00
6:53 PM,86.0,69.1,57,29.92,10.0,SW,4.6,-,N/A,,Clear,230,2013-06-15 23:53:00
7:53 PM,84.9,71.1,63,29.94,10.0,NNW,8.1,-,N/A,,Clear,330,2013-06-16 00:53:00
8:53 PM,84.0,71.1,65,29.95,10.0,NNE,5.8,-,N/A,,Partly Cloudy,20,2013-06-16 01:53:00
9:53 PM,82.9,72.0,69,29.95,10.0,ESE,5.8,-,N/A,,Clear,120,2013-06-16 02:53:00
10:53 PM,82.0,72.0,71,29.97,10.0,East,4.6,-,N/A,,Clear,80,2013-06-16 03:53:00
11:53 PM,81.0,71.1,72,29.96,10.0,East,3.5,-,N/A,,Clear,90,2013-06-16 04:53:00